Location: Henham
(51.9333°N, 0.2500°E)
Time: 11:12:43
(UTC+00:00)

NOAA 12 - Pass Details

Date: 23 October 2019
Orbit: 796 x 815 km, 98.5° (Epoch: 18 November)

Event Time Altitude Azimuth Distance (km) Brightness Sun altitude
Rises 17:19:17 0° 155° (SSE) 3,313 7.2 -5.4°
Reaches altitude 10° 17:21:37 10° 153° (SSE) 2,389 6.4 -5.7°
Maximum altitude 17:26:52 71° 71° (ENE) 862 4.1 -6.5°
Drops below altitude 10° 17:32:11 10° 348° (NNW) 2,415 6.6 -7.3°
Sets 17:34:33 0° 347° (NNW) 3,353 7.4 -7.7°
